Regional Weather Roundup
Issued by NWS Green Bay, WI

Home | Current Version | Previous Version | Text Only | Print | Product List | Glossary On
Versions: 1 2 3 4 5 6 7 8 9 10 11 12 13 14 15 16 17 18 19 20 21 22 23 24 25 26 27 28 29 30 31 32 33 34 35 36 37 38 39 40 41 42 43 44 45 46 47 48 49 50
000
ASUS43 KGRB 250910
RWRGRB

NORTH-CENTRAL AND NORTHEAST WISCONSIN REGIONAL WEATHER ROUNDUP
NATIONAL WEATHER SERVICE GREEN BAY WI
400 AM CDT SAT APR 25 2015

WIZ005-009-010>012-018-019-251000-
NORTH CENTRAL WISCONSIN

CITY           SKY/WX    TMP DP  RH WIND       PRES   REMARKS
IRONWOOD       CLOUDY    37  27  65 E3        29.90S
MANITOWISH WTR CLOUDY    38  27  63 SE7       29.91S
ARBOR VITAE    CLOUDY    39  24  55 SE9       29.91F
EAGLE RIVER    CLOUDY    36  19  49 E6        29.92S
LAND O LAKES   CLOUDY    37  22  56 SE6       29.94S
RHINELANDER    CLOUDY    36  21  54 E8        29.92S
PHILLIPS       CLOUDY    37  27  67 E6        29.89F
ANTIGO         CLOUDY    35  21  57 E8        29.92S
TOMAHAWK       CLOUDY    37  18  45 CALM      29.91F
MERRILL        CLOUDY    38  22  52 E6        29.91S
$$

WIZ013-073-251000-
NORTHEAST WISCONSIN

CITY           SKY/WX    TMP DP  RH WIND       PRES   REMARKS
IRON MOUNTAIN  CLOUDY    34  24  67 CALM      29.95S
MARINETTE      CLOUDY    37  19  48 E9        29.96S
OCONTO         CLOUDY    38  23  55 NE7       29.94F
$$

WIZ017-030-035>037-045-251000-
CENTRAL WISCONSIN

CITY           SKY/WX    TMP DP  RH WIND       PRES   REMARKS
MEDFORD        CLOUDY    37  27  67 E5        29.89R
WAUSAU         CLOUDY    38  22  52 E8        29.89S
MOSINEE        CLOUDY    36  25  64 E9        29.90F
MARSHFIELD     CLOUDY    37  31  78 E9        29.87F
WISC RAPIDS    CLOUDY    37  32  82 E7        29.90S
STEVENS POINT  CLOUDY    35  28  76 E7        29.90S
WAUPACA        CLOUDY    39  32  76 NE5       29.92S
SHAWANO        CLOUDY    40  27  58 E10       29.93F
CLINTONVILLE   CLOUDY    37  23  56 E7        29.92S
$$

WIZ038-039-048-051-251000-
FOX VALLEY

CITY           SKY/WX    TMP DP  RH WIND       PRES   REMARKS
NWS GREEN BAY  CLOUDY    40  27  59 NE12      29.92F
APPLETON       CLOUDY    37  27  65 E8        29.91S
OSHKOSH        CLOUDY    40  34  79 E8        29.89F
FOND DU LAC    CLOUDY    40  34  79 E9        29.88F
$$

WIZ022-050-052-251000-
EAST CENTRAL WISCONSIN

CITY           SKY/WX    TMP DP  RH WIND       PRES   REMARKS
STURGEON BAY   CLOUDY    36  21  55 E9        29.97F
MANITOWOC      CLOUDY    39  31  72 VRB3      29.92F
SHEBOYGAN      PTCLDY    35  32  88 NE5       29.90F
$$

LMZ563-521-522-541>543-251000-
LAKESHORE

STATION/POSITION TIME  TEMP    WIND        PRES    VSBY  WAVE
                       AIR SEA DIR/SP/G                  HT/PER
                 (UTC) (F)     (DEG/KT/KT) (MB)    (MI)  (FT/S)
SHEBOYGAN LKSHOR 0900   38      20/  9/ 10 1013.4F
KEWAUNEE LKSHORE 0900   37      50/  9/ 12 1013.1R
NORTHPORT PIER   0900   36      80/  9/ 14 1015.2F
SISTER BAY LKSHO 0900   36     110/ 11/ 14   N/A
CHAMBERS ISLAND  0900   38      80/  8/ 13 1014.9S
MENOMINEE LKSHOR 0900   39      70/ 10/ 12 1015.4R
$$


USA.gov is the U.S. government's official web portal to all federal, state and local government web resources and services.